Year,Month,Day,Hour,Minute,Value (Times are PST for windgust in km/hr)
2015,12,06,00,00,9.60
2015,12,06,00,01,8.10
2015,12,06,00,02,4.80
2015,12,06,00,03,8.10
2015,12,06,00,04,20.90
2015,12,06,00,05,19.30
2015,12,06,00,06,17.70
2015,12,06,00,07,12.90
2015,12,06,00,08,17.70
2015,12,06,00,09,4.80
2015,12,06,00,10,11.30
2015,12,06,00,11,12.90
2015,12,06,00,12,9.60
2015,12,06,00,13,11.30
2015,12,06,00,14,17.70
2015,12,06,00,15,17.70
2015,12,06,00,16,12.90
2015,12,06,00,17,6.40
2015,12,06,00,18,17.70
2015,12,06,00,19,12.90
2015,12,06,00,20,6.40
2015,12,06,00,21,14.50
2015,12,06,00,22,6.40
2015,12,06,00,23,32.20
2015,12,06,00,24,20.90
2015,12,06,00,25,16.10
2015,12,06,00,26,11.30
2015,12,06,00,27,8.10
2015,12,06,00,28,19.30
2015,12,06,00,29,8.10
2015,12,06,00,30,9.60
2015,12,06,00,31,11.30
2015,12,06,00,32,19.30
2015,12,06,00,33,20.90
2015,12,06,00,34,30.60
2015,12,06,00,35,4.80
2015,12,06,00,36,12.90
2015,12,06,00,37,6.40
2015,12,06,00,38,8.10
2015,12,06,00,39,17.70
2015,12,06,00,40,11.30
2015,12,06,00,41,19.30
2015,12,06,00,42,11.30
2015,12,06,00,43,12.90
2015,12,06,00,44,14.50
2015,12,06,00,45,11.30
2015,12,06,00,46,14.50
2015,12,06,00,47,9.60
2015,12,06,00,48,9.60
2015,12,06,00,49,17.70
2015,12,06,00,50,16.10
2015,12,06,00,51,9.60
2015,12,06,00,52,8.10
2015,12,06,00,53,12.90
2015,12,06,00,54,32.20
2015,12,06,00,55,24.20
2015,12,06,00,56,19.30
2015,12,06,00,57,17.70
2015,12,06,00,58,12.90
2015,12,06,00,59,6.40
2015,12,06,01,00,19.30
2015,12,06,01,01,9.60
2015,12,06,01,02,6.40
2015,12,06,01,03,14.50
2015,12,06,01,04,8.10
2015,12,06,01,05,11.30
2015,12,06,01,06,17.70
2015,12,06,01,07,6.40
2015,12,06,01,08,9.60
2015,12,06,01,09,6.40
2015,12,06,01,10,11.30
2015,12,06,01,11,9.60
2015,12,06,01,12,11.30
2015,12,06,01,13,17.70
2015,12,06,01,14,6.40
2015,12,06,01,15,6.40
2015,12,06,01,16,11.30
2015,12,06,01,17,14.50
2015,12,06,01,18,6.40
2015,12,06,01,19,4.80
2015,12,06,01,20,6.40
2015,12,06,01,21,3.20
2015,12,06,01,22,1.60
2015,12,06,01,24,3.20
2015,12,06,01,25,3.20
2015,12,06,01,26,6.40
2015,12,06,01,27,11.30
2015,12,06,01,28,6.40
2015,12,06,01,29,1.60
2015,12,06,01,30,3.20
2015,12,06,01,31,9.60
2015,12,06,01,32,4.80
2015,12,06,01,33,8.10
2015,12,06,01,34,14.50
2015,12,06,01,35,11.30
2015,12,06,01,36,8.10
2015,12,06,01,37,4.80
2015,12,06,01,38,6.40
2015,12,06,01,39,9.60
2015,12,06,01,40,3.20
2015,12,06,01,41,6.40
2015,12,06,01,42,8.10
2015,12,06,01,43,4.80
2015,12,06,01,44,6.40
2015,12,06,01,45,4.80
2015,12,06,01,46,3.20
2015,12,06,01,47,3.20
2015,12,06,01,48,3.20
2015,12,06,01,49,8.10
2015,12,06,01,50,6.40
2015,12,06,01,51,8.10
2015,12,06,01,52,4.80
2015,12,06,01,53,3.20
2015,12,06,01,54,12.90
2015,12,06,01,55,8.10
2015,12,06,01,56,8.10
2015,12,06,01,57,3.20
2015,12,06,01,58,1.60
2015,12,06,01,59,9.60
2015,12,06,02,00,1.60
2015,12,06,02,01,8.10
2015,12,06,02,02,19.30
2015,12,06,02,03,11.30
2015,12,06,02,04,3.20
2015,12,06,02,05,1.60
2015,12,06,02,06,6.40
2015,12,06,02,07,6.40
2015,12,06,02,08,1.60
2015,12,06,02,09,1.60
2015,12,06,02,10,4.80
2015,12,06,02,13,4.80
2015,12,06,02,14,1.60
2015,12,06,02,15,3.20
2015,12,06,02,16,4.80
2015,12,06,02,17,1.60
2015,12,06,02,18,11.30
2015,12,06,02,19,3.20
2015,12,06,02,20,3.20
2015,12,06,02,21,3.20
2015,12,06,02,22,6.40
2015,12,06,02,23,4.80
2015,12,06,02,24,9.60
2015,12,06,02,25,6.40
2015,12,06,02,26,4.80
2015,12,06,02,27,3.20
2015,12,06,02,28,3.20
2015,12,06,02,29,3.20
2015,12,06,02,30,3.20
2015,12,06,02,31,3.20
2015,12,06,02,32,1.60
2015,12,06,02,33,1.60
2015,12,06,02,34,3.20
2015,12,06,02,35,4.80
2015,12,06,02,36,1.60
2015,12,06,02,37,3.20
2015,12,06,02,38,1.60
2015,12,06,02,39,9.60
2015,12,06,02,40,1.60
2015,12,06,02,41,1.60
2015,12,06,02,42,1.60
2015,12,06,02,43,9.60
2015,12,06,02,44,6.40
2015,12,06,02,45,9.60
2015,12,06,02,46,11.30
2015,12,06,02,47,11.30
2015,12,06,02,48,12.90
2015,12,06,02,49,4.80
2015,12,06,02,50,12.90
2015,12,06,02,51,6.40
2015,12,06,02,52,3.20
2015,12,06,02,53,3.20
2015,12,06,02,54,6.40
2015,12,06,02,55,6.40
2015,12,06,02,56,9.60
2015,12,06,02,57,6.40
2015,12,06,02,58,3.20
2015,12,06,02,59,3.20
2015,12,06,03,00,3.20
2015,12,06,03,01,1.60
2015,12,06,03,02,6.40
2015,12,06,03,03,4.80
2015,12,06,03,04,6.40
2015,12,06,03,05,1.60
2015,12,06,03,06,1.60
2015,12,06,03,07,3.20
2015,12,06,03,08,1.60
2015,12,06,03,11,1.60
2015,12,06,03,12,1.60
2015,12,06,03,18,1.60
2015,12,06,03,19,1.60
2015,12,06,03,20,4.80
2015,12,06,03,21,3.20
2015,12,06,03,22,1.60
2015,12,06,03,28,1.60
2015,12,06,03,29,3.20
2015,12,06,03,30,1.60
2015,12,06,03,34,3.20
2015,12,06,03,35,1.60
2015,12,06,03,36,1.60
2015,12,06,03,39,3.20
2015,12,06,03,40,1.60
2015,12,06,03,42,3.20
2015,12,06,03,43,3.20
2015,12,06,03,44,1.60
2015,12,06,03,45,6.40
2015,12,06,03,46,6.40
2015,12,06,03,47,1.60
2015,12,06,03,48,4.80
2015,12,06,03,49,1.60
2015,12,06,03,50,1.60
2015,12,06,03,58,1.60
2015,12,06,03,59,1.60
2015,12,06,04,00,1.60
2015,12,06,04,01,1.60
2015,12,06,04,02,1.60
2015,12,06,04,03,1.60
2015,12,06,04,04,1.60
2015,12,06,04,05,4.80
2015,12,06,04,06,4.80
2015,12,06,04,07,4.80
2015,12,06,04,08,1.60
2015,12,06,04,09,1.60
2015,12,06,04,10,1.60
2015,12,06,04,11,1.60
2015,12,06,04,12,1.60
2015,12,06,04,15,1.60
2015,12,06,04,16,1.60
2015,12,06,04,19,1.60
2015,12,06,04,20,1.60
2015,12,06,04,22,1.60
2015,12,06,04,25,1.60
2015,12,06,04,26,1.60
2015,12,06,04,27,1.60
2015,12,06,04,28,1.60
2015,12,06,04,29,1.60
2015,12,06,04,30,1.60
2015,12,06,04,31,1.60
2015,12,06,04,32,1.60
2015,12,06,04,33,1.60
2015,12,06,04,34,1.60
2015,12,06,04,35,1.60
2015,12,06,04,36,1.60
2015,12,06,04,42,4.80
2015,12,06,04,43,4.80
2015,12,06,04,44,1.60
2015,12,06,04,51,1.60
2015,12,06,04,52,1.60
2015,12,06,04,57,1.60
2015,12,06,04,58,1.60
2015,12,06,04,59,1.60
2015,12,06,05,00,1.60
2015,12,06,05,01,1.60
2015,12,06,05,02,1.60
2015,12,06,05,03,1.60
2015,12,06,05,04,1.60
2015,12,06,05,05,1.60
2015,12,06,05,06,3.20
2015,12,06,05,07,3.20
2015,12,06,05,08,1.60
2015,12,06,05,09,1.60
2015,12,06,05,10,1.60
2015,12,06,05,11,3.20
2015,12,06,05,12,3.20
2015,12,06,05,13,1.60
2015,12,06,05,14,3.20
2015,12,06,05,15,3.20
2015,12,06,05,16,4.80
2015,12,06,05,17,3.20
2015,12,06,05,19,1.60
2015,12,06,05,20,1.60
2015,12,06,05,21,1.60
2015,12,06,05,22,1.60
2015,12,06,05,23,1.60
2015,12,06,05,24,3.20
2015,12,06,05,25,1.60
2015,12,06,05,27,3.20
2015,12,06,05,28,4.80
2015,12,06,05,29,1.60
2015,12,06,05,30,12.90
2015,12,06,05,31,19.30
2015,12,06,05,32,3.20
2015,12,06,05,33,1.60
2015,12,06,05,34,1.60
2015,12,06,05,36,9.60
2015,12,06,05,37,9.60
2015,12,06,05,38,4.80
2015,12,06,05,39,3.20
2015,12,06,05,40,3.20
2015,12,06,05,41,1.60
2015,12,06,05,42,6.40
2015,12,06,05,43,4.80
2015,12,06,05,44,6.40
2015,12,06,05,45,8.10
2015,12,06,05,46,3.20
2015,12,06,05,47,6.40
2015,12,06,05,48,1.60
2015,12,06,05,49,3.20
2015,12,06,05,50,1.60
2015,12,06,05,51,8.10
2015,12,06,05,52,4.80
2015,12,06,05,53,6.40
2015,12,06,05,54,9.60
2015,12,06,05,55,17.70
2015,12,06,05,56,9.60
2015,12,06,05,57,9.60
2015,12,06,05,58,8.10
2015,12,06,05,59,6.40
2015,12,06,06,00,19.30
2015,12,06,06,01,20.90
2015,12,06,06,02,17.70
2015,12,06,06,03,11.30
2015,12,06,06,04,8.10
2015,12,06,06,05,17.70
2015,12,06,06,06,16.10
2015,12,06,06,07,9.60
2015,12,06,06,08,3.20
2015,12,06,06,09,16.10
2015,12,06,06,10,14.50
2015,12,06,06,11,8.10
2015,12,06,06,12,6.40
2015,12,06,06,13,11.30
2015,12,06,06,14,16.10
2015,12,06,06,15,17.70
2015,12,06,06,16,6.40
2015,12,06,06,17,17.70
2015,12,06,06,18,20.90
2015,12,06,06,19,6.40
2015,12,06,06,20,4.80
2015,12,06,06,21,12.90
2015,12,06,06,22,12.90
2015,12,06,06,23,8.10
2015,12,06,06,24,16.10
2015,12,06,06,25,14.50
2015,12,06,06,26,14.50
2015,12,06,06,27,25.70
2015,12,06,06,28,24.20
2015,12,06,06,29,17.70
2015,12,06,06,30,20.90
2015,12,06,06,31,14.50
2015,12,06,06,32,14.50
2015,12,06,06,33,16.10
2015,12,06,06,34,12.90
2015,12,06,06,35,12.90
2015,12,06,06,36,22.50
2015,12,06,06,37,22.50
2015,12,06,06,38,16.10
2015,12,06,06,39,14.50
2015,12,06,06,40,25.70
2015,12,06,06,41,12.90
2015,12,06,06,42,17.70
2015,12,06,06,43,14.50
2015,12,06,06,44,19.30
2015,12,06,06,45,11.30
2015,12,06,06,46,16.10
2015,12,06,06,47,9.60
2015,12,06,06,48,4.80
2015,12,06,06,49,16.10
2015,12,06,06,50,6.40
2015,12,06,06,51,24.20
2015,12,06,06,52,19.30
2015,12,06,06,53,9.60
2015,12,06,06,54,6.40
2015,12,06,06,55,22.50
2015,12,06,06,56,16.10
2015,12,06,06,57,12.90
2015,12,06,06,58,16.10
2015,12,06,06,59,14.50
2015,12,06,07,00,14.50
2015,12,06,07,01,16.10
2015,12,06,07,02,11.30
2015,12,06,07,03,19.30
2015,12,06,07,04,17.70
2015,12,06,07,05,16.10
2015,12,06,07,06,9.60
2015,12,06,07,07,11.30
2015,12,06,07,08,17.70
2015,12,06,07,09,25.70
2015,12,06,07,10,20.90
2015,12,06,07,11,24.20
2015,12,06,07,12,14.50
2015,12,06,07,13,20.90
2015,12,06,07,14,19.30
2015,12,06,07,15,12.90
2015,12,06,07,16,12.90
2015,12,06,07,17,8.10
2015,12,06,07,18,25.70
2015,12,06,07,19,17.70
2015,12,06,07,20,17.70
2015,12,06,07,21,22.50
2015,12,06,07,22,14.50
2015,12,06,07,23,22.50
2015,12,06,07,24,16.10
2015,12,06,07,25,19.30
2015,12,06,07,26,11.30
2015,12,06,07,27,14.50
2015,12,06,07,28,22.50
2015,12,06,07,29,9.60
2015,12,06,07,30,9.60
2015,12,06,07,31,19.30
2015,12,06,07,32,16.10
2015,12,06,07,33,14.50
2015,12,06,07,34,17.70
2015,12,06,07,35,12.90
2015,12,06,07,36,22.50
2015,12,06,07,37,14.50
2015,12,06,07,38,12.90
2015,12,06,07,39,27.40
2015,12,06,07,40,16.10
2015,12,06,07,41,29.00
2015,12,06,07,42,6.40
2015,12,06,07,43,24.20
2015,12,06,07,44,20.90
2015,12,06,07,45,16.10
2015,12,06,07,46,12.90
2015,12,06,07,47,24.20
2015,12,06,07,48,25.70
2015,12,06,07,49,20.90
2015,12,06,07,50,11.30
2015,12,06,07,51,12.90
2015,12,06,07,52,6.40
2015,12,06,07,53,12.90
2015,12,06,07,54,22.50
2015,12,06,07,55,16.10
2015,12,06,07,56,14.50
2015,12,06,07,57,20.90
2015,12,06,07,58,12.90
2015,12,06,07,59,29.00
2015,12,06,08,00,25.70
2015,12,06,08,01,24.20
2015,12,06,08,02,14.50
2015,12,06,08,03,32.20
2015,12,06,08,04,12.90
2015,12,06,08,05,14.50
2015,12,06,08,06,20.90
2015,12,06,08,07,24.20
2015,12,06,08,08,25.70
2015,12,06,08,09,20.90
2015,12,06,08,10,11.30
2015,12,06,08,11,29.00
2015,12,06,08,12,20.90
2015,12,06,08,13,16.10
2015,12,06,08,14,11.30
2015,12,06,08,15,14.50
2015,12,06,08,16,25.70
2015,12,06,08,17,19.30
2015,12,06,08,18,12.90
2015,12,06,08,19,24.20
2015,12,06,08,20,17.70
2015,12,06,08,21,8.10
2015,12,06,08,22,17.70
2015,12,06,08,23,12.90
2015,12,06,08,24,11.30
2015,12,06,08,25,27.40
2015,12,06,08,26,17.70
2015,12,06,08,27,19.30
2015,12,06,08,28,22.50
2015,12,06,08,29,20.90
2015,12,06,08,30,27.40
2015,12,06,08,31,9.60
2015,12,06,08,32,16.10
2015,12,06,08,33,22.50
2015,12,06,08,34,12.90
2015,12,06,08,35,17.70
2015,12,06,08,36,8.10
2015,12,06,08,37,11.30
2015,12,06,08,38,16.10
2015,12,06,08,39,14.50
2015,12,06,08,40,6.40
2015,12,06,08,41,20.90
2015,12,06,08,42,29.00
2015,12,06,08,43,12.90
2015,12,06,08,44,12.90
2015,12,06,08,45,14.50
2015,12,06,08,46,16.10
2015,12,06,08,47,20.90
2015,12,06,08,48,9.60
2015,12,06,08,49,27.40
2015,12,06,08,50,22.50
2015,12,06,08,51,11.30
2015,12,06,08,52,20.90
2015,12,06,08,53,17.70
2015,12,06,08,54,20.90
2015,12,06,08,55,16.10
2015,12,06,08,56,16.10
2015,12,06,08,57,19.30
2015,12,06,08,58,32.20
2015,12,06,08,59,33.80
2015,12,06,09,00,24.20
2015,12,06,09,01,27.40
2015,12,06,09,02,20.90
2015,12,06,09,03,20.90
2015,12,06,09,04,22.50
2015,12,06,09,05,17.70
2015,12,06,09,06,20.90
2015,12,06,09,07,20.90
2015,12,06,09,08,16.10
2015,12,06,09,09,19.30
2015,12,06,09,10,16.10
2015,12,06,09,11,14.50
2015,12,06,09,12,20.90
2015,12,06,09,13,33.80
2015,12,06,09,14,24.20
2015,12,06,09,15,12.90
2015,12,06,09,16,17.70
2015,12,06,09,17,6.40
2015,12,06,09,18,25.70
2015,12,06,09,19,20.90
2015,12,06,09,20,19.30
2015,12,06,09,21,11.30
2015,12,06,09,22,16.10
2015,12,06,09,23,14.50
2015,12,06,09,24,32.20
2015,12,06,09,25,29.00
2015,12,06,09,26,25.70
2015,12,06,09,27,11.30
2015,12,06,09,28,35.40
2015,12,06,09,29,25.70
2015,12,06,09,30,16.10
2015,12,06,09,31,9.60
2015,12,06,09,32,22.50
2015,12,06,09,33,9.60
2015,12,06,09,34,20.90
2015,12,06,09,35,33.80
2015,12,06,09,36,27.40
2015,12,06,09,37,40.20
2015,12,06,09,38,25.70
2015,12,06,09,39,33.80
2015,12,06,09,40,11.30
2015,12,06,09,41,30.60
2015,12,06,09,42,14.50
2015,12,06,09,43,30.60
2015,12,06,09,44,16.10
2015,12,06,09,45,29.00
2015,12,06,09,46,20.90
2015,12,06,09,47,22.50
2015,12,06,09,48,22.50
2015,12,06,09,49,22.50
2015,12,06,09,50,25.70
2015,12,06,09,51,8.10
2015,12,06,09,52,24.20
2015,12,06,09,53,40.20
2015,12,06,09,54,24.20
2015,12,06,09,55,32.20
2015,12,06,09,56,12.90
2015,12,06,09,57,9.60
2015,12,06,09,58,25.70
2015,12,06,09,59,29.00
2015,12,06,10,00,20.90
2015,12,06,10,01,22.50
2015,12,06,10,02,24.20
2015,12,06,10,03,16.10
2015,12,06,10,04,11.30
2015,12,06,10,05,25.70
2015,12,06,10,06,25.70
2015,12,06,10,07,19.30
2015,12,06,10,08,24.20
2015,12,06,10,09,33.80
2015,12,06,10,10,27.40
2015,12,06,10,11,22.50
2015,12,06,10,12,24.20
2015,12,06,10,13,12.90
2015,12,06,10,14,30.60
2015,12,06,10,15,24.20
2015,12,06,10,16,24.20
2015,12,06,10,17,16.10
2015,12,06,10,18,20.90
2015,12,06,10,19,25.70
2015,12,06,10,20,11.30
2015,12,06,10,21,12.90
2015,12,06,10,22,35.40
2015,12,06,10,23,20.90
2015,12,06,10,24,19.30
2015,12,06,10,25,27.40
2015,12,06,10,26,27.40
2015,12,06,10,27,16.10
2015,12,06,10,28,30.60
2015,12,06,10,29,20.90
2015,12,06,10,30,11.30
2015,12,06,10,31,17.70
2015,12,06,10,32,27.40
2015,12,06,10,33,35.40
2015,12,06,10,34,24.20
2015,12,06,10,35,16.10
2015,12,06,10,36,48.30
2015,12,06,10,37,12.90
2015,12,06,10,38,33.80
2015,12,06,10,39,19.30
2015,12,06,10,40,22.50
2015,12,06,10,41,29.00
2015,12,06,10,42,20.90
2015,12,06,10,43,14.50
2015,12,06,10,44,20.90
2015,12,06,10,45,8.10
2015,12,06,10,46,19.30
2015,12,06,10,47,27.40
2015,12,06,10,48,12.90
2015,12,06,10,49,24.20
2015,12,06,10,50,20.90
2015,12,06,10,51,20.90
2015,12,06,10,52,20.90
2015,12,06,10,53,30.60
2015,12,06,10,54,25.70
2015,12,06,10,55,14.50
2015,12,06,10,56,22.50
2015,12,06,10,57,14.50
2015,12,06,10,58,46.70
2015,12,06,10,59,22.50
2015,12,06,11,00,35.40
2015,12,06,11,01,12.90
2015,12,06,11,02,25.70
2015,12,06,11,03,17.70
2015,12,06,11,04,20.90
2015,12,06,11,05,19.30
2015,12,06,11,06,12.90
2015,12,06,11,07,25.70
2015,12,06,11,08,33.80
2015,12,06,11,09,17.70
2015,12,06,11,10,19.30
2015,12,06,11,11,14.50
2015,12,06,11,12,22.50
2015,12,06,11,13,25.70
2015,12,06,11,14,30.60
2015,12,06,11,15,17.70
2015,12,06,11,16,16.10
2015,12,06,11,17,30.60
2015,12,06,11,18,32.20
2015,12,06,11,19,19.30
2015,12,06,11,20,16.10
2015,12,06,11,21,46.70
2015,12,06,11,22,22.50
2015,12,06,11,23,16.10
2015,12,06,11,24,35.40
2015,12,06,11,25,20.90
2015,12,06,11,26,27.40
2015,12,06,11,27,30.60
2015,12,06,11,28,29.00
2015,12,06,11,29,35.40
2015,12,06,11,30,17.70
2015,12,06,11,31,12.90
2015,12,06,11,32,12.90
2015,12,06,11,33,17.70
2015,12,06,11,34,17.70
2015,12,06,11,35,32.20
2015,12,06,11,36,35.40
2015,12,06,11,37,20.90
2015,12,06,11,38,25.70
2015,12,06,11,39,25.70
2015,12,06,11,40,41.80
2015,12,06,11,41,20.90
2015,12,06,11,42,12.90
2015,12,06,11,43,12.90
2015,12,06,11,44,24.20
2015,12,06,11,45,33.80
2015,12,06,11,46,24.20
2015,12,06,11,47,24.20
2015,12,06,11,48,20.90
2015,12,06,11,49,16.10
2015,12,06,11,50,16.10
2015,12,06,11,51,35.40
2015,12,06,11,52,29.00
2015,12,06,11,53,16.10
2015,12,06,11,54,27.40
2015,12,06,11,55,29.00
2015,12,06,11,56,22.50
2015,12,06,11,57,19.30
2015,12,06,11,58,19.30
2015,12,06,11,59,27.40
2015,12,06,12,00,17.70
2015,12,06,12,01,19.30
2015,12,06,12,02,16.10
2015,12,06,12,03,20.90
2015,12,06,12,04,30.60
2015,12,06,12,05,27.40
2015,12,06,12,06,33.80
2015,12,06,12,07,17.70
2015,12,06,12,08,16.10
2015,12,06,12,09,24.20
2015,12,06,12,10,33.80
2015,12,06,12,11,14.50
2015,12,06,12,12,30.60
2015,12,06,12,13,17.70
2015,12,06,12,14,8.10
2015,12,06,12,15,40.20
2015,12,06,12,16,25.70
2015,12,06,12,17,17.70
2015,12,06,12,18,20.90
2015,12,06,12,19,29.00
2015,12,06,12,20,32.20
2015,12,06,12,21,24.20
2015,12,06,12,22,24.20
2015,12,06,12,23,17.70
2015,12,06,12,24,30.60
2015,12,06,12,25,40.20
2015,12,06,12,26,35.40
2015,12,06,12,27,19.30
2015,12,06,12,28,32.20
2015,12,06,12,29,25.70
2015,12,06,12,30,14.50
2015,12,06,12,31,16.10
2015,12,06,12,32,11.30
2015,12,06,12,33,16.10
2015,12,06,12,34,27.40
2015,12,06,12,35,12.90
2015,12,06,12,36,29.00
2015,12,06,12,37,14.50
2015,12,06,12,38,16.10
2015,12,06,12,39,29.00
2015,12,06,12,40,12.90
2015,12,06,12,41,25.70
2015,12,06,12,42,41.80
2015,12,06,12,43,14.50
2015,12,06,12,44,38.60
2015,12,06,12,45,17.70
2015,12,06,12,46,17.70
2015,12,06,12,47,17.70
2015,12,06,12,48,16.10
2015,12,06,12,49,24.20
2015,12,06,12,50,25.70
2015,12,06,12,51,20.90
2015,12,06,12,52,30.60
2015,12,06,12,53,30.60
2015,12,06,12,54,20.90
2015,12,06,12,55,25.70
2015,12,06,12,56,24.20
2015,12,06,12,57,19.30
2015,12,06,12,58,29.00
2015,12,06,12,59,24.20
2015,12,06,13,00,9.60
2015,12,06,13,01,17.70
2015,12,06,13,02,14.50
2015,12,06,13,03,20.90
2015,12,06,13,04,35.40
2015,12,06,13,05,38.60
2015,12,06,13,06,30.60
2015,12,06,13,07,14.50
2015,12,06,13,08,25.70
2015,12,06,13,09,14.50
2015,12,06,13,10,19.30
2015,12,06,13,11,8.10
2015,12,06,13,12,11.30
2015,12,06,13,13,9.60
2015,12,06,13,14,32.20
2015,12,06,13,15,37.00
2015,12,06,13,16,25.70
2015,12,06,13,17,25.70
2015,12,06,13,18,20.90
2015,12,06,13,19,12.90
2015,12,06,13,20,24.20
2015,12,06,13,21,27.40
2015,12,06,13,22,30.60
2015,12,06,13,23,16.10
2015,12,06,13,24,20.90
2015,12,06,13,25,17.70
2015,12,06,13,26,19.30
2015,12,06,13,27,25.70
2015,12,06,13,28,6.40
2015,12,06,13,29,25.70
2015,12,06,13,30,27.40
2015,12,06,13,31,11.30
2015,12,06,13,32,30.60
2015,12,06,13,33,25.70
2015,12,06,13,34,22.50
2015,12,06,13,35,20.90
2015,12,06,13,36,29.00
2015,12,06,13,37,33.80
2015,12,06,13,38,25.70
2015,12,06,13,39,17.70
2015,12,06,13,40,38.60
2015,12,06,13,41,19.30
2015,12,06,13,42,17.70
2015,12,06,13,43,30.60
2015,12,06,13,44,27.40
2015,12,06,13,45,19.30
2015,12,06,13,46,22.50
2015,12,06,13,47,14.50
2015,12,06,13,48,24.20
2015,12,06,13,49,17.70
2015,12,06,13,50,17.70
2015,12,06,13,51,38.60
2015,12,06,13,52,22.50
2015,12,06,13,53,25.70
2015,12,06,13,54,30.60
2015,12,06,13,55,32.20
2015,12,06,13,56,37.00
2015,12,06,13,57,19.30
2015,12,06,13,58,25.70
2015,12,06,13,59,22.50
2015,12,06,14,00,16.10
2015,12,06,14,01,11.30
2015,12,06,14,02,17.70
2015,12,06,14,03,12.90
2015,12,06,14,04,14.50
2015,12,06,14,05,22.50
2015,12,06,14,06,12.90
2015,12,06,14,07,46.70
2015,12,06,14,08,24.20
2015,12,06,14,09,17.70
2015,12,06,14,10,30.60
2015,12,06,14,11,24.20
2015,12,06,14,12,20.90
2015,12,06,14,13,16.10
2015,12,06,14,14,14.50
2015,12,06,14,15,25.70
2015,12,06,14,16,24.20
2015,12,06,14,17,20.90
2015,12,06,14,18,22.50
2015,12,06,14,19,16.10
2015,12,06,14,20,22.50
2015,12,06,14,21,29.00
2015,12,06,14,22,25.70
2015,12,06,14,23,19.30
2015,12,06,14,24,19.30
2015,12,06,14,25,19.30
2015,12,06,14,26,22.50
2015,12,06,14,27,20.90
2015,12,06,14,28,22.50
2015,12,06,14,29,24.20
2015,12,06,14,30,37.00
2015,12,06,14,31,30.60
2015,12,06,14,32,17.70
2015,12,06,14,33,20.90
2015,12,06,14,34,9.60
2015,12,06,14,35,14.50
2015,12,06,14,36,22.50
2015,12,06,14,37,20.90
2015,12,06,14,38,35.40
2015,12,06,14,39,25.70
2015,12,06,14,40,37.00
2015,12,06,14,41,35.40
2015,12,06,14,42,29.00
2015,12,06,14,43,27.40
2015,12,06,14,44,33.80
2015,12,06,14,45,24.20
2015,12,06,14,46,29.00
2015,12,06,14,47,14.50
2015,12,06,14,48,27.40
2015,12,06,14,49,29.00
2015,12,06,14,50,25.70
2015,12,06,14,51,29.00
2015,12,06,14,52,41.80
2015,12,06,14,53,40.20
2015,12,06,14,54,29.00
2015,12,06,14,55,22.50
2015,12,06,14,56,37.00
2015,12,06,14,57,19.30
2015,12,06,14,58,49.90
2015,12,06,14,59,29.00
2015,12,06,15,00,33.80
2015,12,06,15,01,25.70
2015,12,06,15,02,22.50
2015,12,06,15,03,24.20
2015,12,06,15,04,35.40
2015,12,06,15,05,27.40
2015,12,06,15,06,35.40
2015,12,06,15,07,20.90
2015,12,06,15,08,33.80
2015,12,06,15,09,17.70
2015,12,06,15,10,30.60
2015,12,06,15,11,19.30
2015,12,06,15,12,35.40
2015,12,06,15,13,29.00
2015,12,06,15,14,16.10
2015,12,06,15,15,33.80
2015,12,06,15,16,35.40
2015,12,06,15,17,32.20
2015,12,06,15,18,16.10
2015,12,06,15,19,43.50
2015,12,06,15,20,41.80
2015,12,06,15,21,27.40
2015,12,06,15,22,29.00
2015,12,06,15,23,45.10
2015,12,06,15,24,33.80
2015,12,06,15,25,22.50
2015,12,06,15,26,53.10
2015,12,06,15,27,38.60
2015,12,06,15,28,25.70
2015,12,06,15,29,32.20
2015,12,06,15,30,51.50
2015,12,06,15,31,29.00
2015,12,06,15,32,22.50
2015,12,06,15,33,40.20
2015,12,06,15,34,27.40
2015,12,06,15,35,35.40
2015,12,06,15,36,25.70
2015,12,06,15,37,24.20
2015,12,06,15,38,14.50
2015,12,06,15,39,14.50
2015,12,06,15,40,16.10
2015,12,06,15,41,37.00
2015,12,06,15,42,27.40
2015,12,06,15,43,32.20
2015,12,06,15,44,19.30
2015,12,06,15,45,33.80
2015,12,06,15,46,25.70
2015,12,06,15,47,25.70
2015,12,06,15,48,35.40
2015,12,06,15,49,30.60
2015,12,06,15,50,32.20
2015,12,06,15,51,35.40
2015,12,06,15,52,22.50
2015,12,06,15,53,20.90
2015,12,06,15,54,41.80
2015,12,06,15,55,14.50
2015,12,06,15,56,30.60
2015,12,06,15,57,32.20
2015,12,06,15,58,24.20
2015,12,06,15,59,29.00
2015,12,06,16,00,16.10
2015,12,06,16,01,45.10
2015,12,06,16,02,35.40
2015,12,06,16,03,35.40
2015,12,06,16,04,20.90
2015,12,06,16,05,22.50
2015,12,06,16,06,43.50
2015,12,06,16,07,30.60
2015,12,06,16,08,22.50
2015,12,06,16,09,29.00
2015,12,06,16,10,29.00
2015,12,06,16,11,19.30
2015,12,06,16,12,40.20
2015,12,06,16,13,27.40
2015,12,06,16,14,19.30
2015,12,06,16,15,17.70
2015,12,06,16,16,17.70
2015,12,06,16,17,46.70
2015,12,06,16,18,30.60
2015,12,06,16,19,20.90
2015,12,06,16,20,25.70
2015,12,06,16,21,22.50
2015,12,06,16,22,27.40
2015,12,06,16,23,29.00
2015,12,06,16,24,27.40
2015,12,06,16,25,25.70
2015,12,06,16,26,16.10
2015,12,06,16,27,29.00
2015,12,06,16,28,27.40
2015,12,06,16,29,22.50
2015,12,06,16,30,9.60
2015,12,06,16,31,33.80
2015,12,06,16,32,19.30
2015,12,06,16,33,27.40
2015,12,06,16,34,25.70
2015,12,06,16,35,22.50
2015,12,06,16,36,19.30
2015,12,06,16,37,27.40
2015,12,06,16,38,25.70
2015,12,06,16,39,32.20
2015,12,06,16,40,19.30
2015,12,06,16,41,33.80
2015,12,06,16,42,17.70
2015,12,06,16,43,30.60
2015,12,06,16,44,17.70
2015,12,06,16,45,32.20
2015,12,06,16,46,38.60
2015,12,06,16,47,17.70
2015,12,06,16,48,27.40
2015,12,06,16,49,35.40
2015,12,06,16,50,22.50
2015,12,06,16,51,32.20
2015,12,06,16,52,11.30
2015,12,06,16,53,48.30
2015,12,06,16,54,43.50
2015,12,06,16,55,16.10
2015,12,06,16,56,27.40
2015,12,06,16,57,41.80
2015,12,06,16,58,27.40
2015,12,06,16,59,30.60
2015,12,06,17,00,49.90
2015,12,06,17,01,29.00
2015,12,06,17,02,17.70
2015,12,06,17,03,30.60
2015,12,06,17,04,29.00
2015,12,06,17,05,24.20
2015,12,06,17,06,20.90
2015,12,06,17,07,25.70
2015,12,06,17,08,32.20
2015,12,06,17,09,46.70
2015,12,06,17,10,37.00
2015,12,06,17,11,48.30
2015,12,06,17,12,27.40
2015,12,06,17,13,29.00
2015,12,06,17,14,43.50
2015,12,06,17,15,24.20
2015,12,06,17,16,37.00
2015,12,06,17,17,35.40
2015,12,06,17,18,35.40
2015,12,06,17,19,49.90
2015,12,06,17,20,19.30
2015,12,06,17,21,27.40
2015,12,06,17,22,32.20
2015,12,06,17,23,46.70
2015,12,06,17,24,20.90
2015,12,06,17,25,25.70
2015,12,06,17,26,30.60
2015,12,06,17,27,41.80
2015,12,06,17,28,29.00
2015,12,06,17,29,16.10
2015,12,06,17,30,25.70
2015,12,06,17,31,37.00
2015,12,06,17,32,40.20
2015,12,06,17,33,38.60
2015,12,06,17,34,27.40
2015,12,06,17,35,41.80
2015,12,06,17,36,51.50
2015,12,06,17,37,30.60
2015,12,06,17,38,19.30
2015,12,06,17,39,22.50
2015,12,06,17,40,46.70
2015,12,06,17,41,11.30
2015,12,06,17,42,16.10
2015,12,06,17,43,41.80
2015,12,06,17,44,43.50
2015,12,06,17,45,29.00
2015,12,06,17,46,27.40
2015,12,06,17,47,37.00
2015,12,06,17,48,29.00
2015,12,06,17,49,22.50
2015,12,06,17,50,29.00
2015,12,06,17,51,27.40
2015,12,06,17,52,43.50
2015,12,06,17,53,35.40
2015,12,06,17,54,40.20
2015,12,06,17,55,25.70
2015,12,06,17,56,32.20
2015,12,06,17,57,37.00
2015,12,06,17,58,25.70
2015,12,06,17,59,25.70
2015,12,06,18,00,25.70
2015,12,06,18,01,51.50
2015,12,06,18,02,32.20
2015,12,06,18,03,27.40
2015,12,06,18,04,32.20
2015,12,06,18,05,35.40
2015,12,06,18,06,38.60
2015,12,06,18,07,38.60
2015,12,06,18,08,40.20
2015,12,06,18,09,33.80
2015,12,06,18,10,17.70
2015,12,06,18,11,30.60
2015,12,06,18,12,16.10
2015,12,06,18,13,35.40
2015,12,06,18,14,25.70
2015,12,06,18,15,37.00
2015,12,06,18,16,37.00
2015,12,06,18,17,32.20
2015,12,06,18,18,33.80
2015,12,06,18,19,25.70
2015,12,06,18,20,24.20
2015,12,06,18,21,19.30
2015,12,06,18,22,40.20
2015,12,06,18,23,33.80
2015,12,06,18,24,33.80